Voltar ao catálogo

STARLINK-11372

AtivoComunicaçõesVLEO
NORAD 61576·PAYLOAD·🇺🇸 United States

Lançado Oct 18, 2024 de Cape Canaveral Space Force Station

Loading…

Próximas Passagens (próximas 24 horas)

TLE

AtualizadoSource: CelesTrak SupGP

Época: Sep 15, 2026, 02:18 UTC

1 61576C 24187C   26258.09631944 -.00006848  00000+0 -56320-4 0  2581
2 61576  53.1569  82.4581 0001056  59.5110 170.3127 15.69749753    15

Acompanhe STARLINK-11372 em tempo real com AllMySat

Download on the App Store